Beaufort, SC

8:42 PM EST on January 20, 2017 (GMT -0500)
Beaufort Marine Corps Air Station

Weather History for KNBC - August, 2014

Change the Weather History Date:

Monday, August 11, 2014

  Actual Average Record
Temperature  
Mean Temperature 82 °F -  
Max Temperature 91 °F 88 °F 99 °F (1932)
Min Temperature 75 °F 72 °F 67 °F (1989)
Cooling Degree Days 17    
Growing Degree Days 32 (Base 50)    
Moisture  
Dew Point 75 °F    
Average Humidity 86    
Maximum Humidity 100    
Minimum Humidity 59    
Precipitation  
Precipitation 2.24 in - - ()
Sea Level Pressure  
Sea Level Pressure 29.96 in    
Wind  
Wind Speed 4 mph (NE)    
Max Wind Speed 20 mph    
Max Gust Speed 28 mph    
Visibility 8 miles    
Events Rain , Thunderstorm    
Averages and records for this station are not official NWS values.
T = Trace of Precipitation, MM = Missing Value Source: NWS Daily Summary

Daily Weather History Graph

Daily Weather History Graph

Search for Another Location

Airport or City:

Trip Planner

Search our weather history database for the weather conditions in past years. The results will help you decide how hot, cold, wet, or windy it might be!

Date:

Astronomy

Aug. 11, 2014 Rise Set
Actual Time 6:44 AM EDT 8:11 PM EDT
Civil Twilight 6:17 AM EDT 8:37 PM EDT
Nautical Twilight 5:46 AM EDT 9:08 PM EDT
Astronomical Twilight 5:13 AM EDT 9:41 PM EDT
Moon 8:47 PM EDT (8/11) 7:41 AM EDT (8/11)
Length of Visible Light 14h 19m
Length of Day
13h 27m
Full, 99% of the Moon is Illuminated
Aug 11
Full
Aug 17
Last Quarter
Aug 25
New
Sep 2
First Quarter
Sep 8
Full

Hourly Weather History & Observations

Time (EDT) Temp. Heat Index Dew Point Humidity Pressure Visibility Wind Dir Wind Speed Gust Speed Precip Events Conditions
12:19 AM 77.0 °F - 73.9 °F 90% 29.99 in 10.0 mi ENE 6.9 mph - N/A   Mostly Cloudy
12:51 AM 75.2 °F - 75.2 °F 100% 30.00 in 7.0 mi East 4.6 mph - N/A   Overcast
12:56 AM 75.9 °F - 75.0 °F 97% 30.01 in 7.0 mi East 5.8 mph - N/A   Overcast
1:31 AM 75.9 °F - 73.9 °F 94% 30.00 in 8.0 mi Calm Calm - N/A   Overcast
1:56 AM 77.0 °F - 75.0 °F 94% 30.00 in 9.0 mi NE 4.6 mph - N/A   Mostly Cloudy
2:28 AM 75.9 °F - 75.0 °F 97% 29.98 in 6.0 mi East 5.8 mph - N/A   Overcast
2:56 AM 75.9 °F - 75.0 °F 97% 29.98 in 6.0 mi East 4.6 mph - N/A   Overcast
3:56 AM 75.9 °F - 73.9 °F 94% 29.97 in 6.0 mi East 3.5 mph - N/A   Overcast
4:28 AM 77.0 °F - 75.0 °F 94% 29.96 in 6.0 mi Calm Calm - N/A   Overcast
4:56 AM 77.0 °F - 75.0 °F 94% 29.96 in 8.0 mi NNE 3.5 mph - N/A   Overcast
5:38 AM 77.0 °F - 75.0 °F 94% 29.97 in 8.0 mi Calm Calm - N/A   Overcast
5:56 AM 77.0 °F - 75.0 °F 94% 29.97 in 8.0 mi NE 3.5 mph - N/A   Overcast
6:29 AM 77.0 °F - 75.0 °F 94% 29.97 in 9.0 mi NE 3.5 mph - N/A   Overcast
6:56 AM 77.0 °F - 75.0 °F 94% 29.98 in 9.0 mi NNE 3.5 mph - N/A   Overcast
7:33 AM 77.0 °F - 75.0 °F 94% 29.98 in 8.0 mi ENE 3.5 mph - N/A   Overcast
7:56 AM 77.0 °F - 75.0 °F 94% 29.99 in 5.0 mi NNE 3.5 mph - N/A   Overcast
8:04 AM 77.0 °F - 75.0 °F 94% 29.99 in 4.0 mi NNE 4.6 mph - N/A   Overcast
8:21 AM 77.0 °F - 75.0 °F 94% 29.99 in 4.0 mi NE 3.5 mph - N/A   Overcast
8:42 AM 78.1 °F - 75.0 °F 90% 30.00 in 7.0 mi NNE 4.6 mph - N/A   Overcast
8:56 AM 79.0 °F - 75.0 °F 88% 30.00 in 7.0 mi NNE 5.8 mph - N/A   Overcast
9:56 AM 81.0 °F 86.7 °F 75.0 °F 82% 30.00 in 10.0 mi North 3.5 mph - N/A   Overcast
10:06 AM 80.1 °F 85.1 °F 75.0 °F 85% 30.00 in 10.0 mi Variable 3.5 mph - N/A   Overcast
10:37 AM 81.0 °F 86.7 °F 75.0 °F 82% 30.00 in 10.0 mi Calm Calm - N/A   Overcast
10:56 AM 82.0 °F 88.6 °F 75.0 °F 79% 30.01 in 10.0 mi Calm Calm - N/A   Mostly Cloudy
11:25 AM 82.9 °F 90.2 °F 75.0 °F 77% 30.00 in 10.0 mi Variable 4.6 mph - N/A   Mostly Cloudy
11:56 AM 82.9 °F 90.2 °F 75.0 °F 77% 30.00 in 10.0 mi ENE 5.8 mph - N/A   Mostly Cloudy
12:56 PM 84.0 °F 91.2 °F 73.9 °F 72% 29.99 in 10.0 mi NNW 4.6 mph - N/A   Mostly Cloudy
1:13 PM 87.1 °F 95.4 °F 73.9 °F 65% 29.98 in 10.0 mi Variable 3.5 mph - N/A   Mostly Cloudy
1:56 PM 86.0 °F 93.8 °F 73.9 °F 67% 29.96 in 10.0 mi Calm Calm - N/A   Partly Cloudy
2:56 PM 87.1 °F 95.4 °F 73.9 °F 65% 29.94 in 10.0 mi WNW 3.5 mph - N/A   Mostly Cloudy
3:56 PM 89.1 °F 97.0 °F 73.0 °F 59% 29.92 in 10.0 mi Variable 3.5 mph - N/A   Mostly Cloudy
4:56 PM 88.0 °F 94.7 °F 72.0 °F 59% 29.91 in 10.0 mi WNW 4.6 mph - N/A   Mostly Cloudy
5:56 PM 84.9 °F 93.3 °F 75.0 °F 72% 29.91 in 6.0 mi Calm Calm - 0.05 in Rain , Thunderstorm Light Rain
5:59 PM 82.9 °F 90.2 °F 75.0 °F 77% 29.90 in 1.5 mi Variable 3.5 mph - 0.11 in Rain , Thunderstorm Heavy Rain
6:01 PM 81.0 °F 86.7 °F 75.0 °F 82% 29.90 in 0.8 mi Variable 3.5 mph - 0.26 in Rain , Thunderstorm Heavy Rain
6:08 PM 80.1 °F 84.5 °F 73.9 °F 81% 29.91 in 7.0 mi NE 19.6 mph 27.6 mph 0.63 in Thunderstorm Mostly Cloudy
6:26 PM 78.1 °F - 73.9 °F 87% 29.91 in 7.0 mi ENE 12.7 mph 24.2 mph 1.14 in Thunderstorm Mostly Cloudy
6:33 PM 77.0 °F - 75.0 °F 94% 29.91 in 7.0 mi ENE 12.7 mph 21.9 mph 1.59 in Rain , Thunderstorm Light Thunderstorms and Rain
6:49 PM 78.1 °F - 75.9 °F 93% 29.91 in 2.0 mi NNW 8.1 mph - 1.93 in Rain , Thunderstorm Thunderstorms and Rain
6:56 PM 77.0 °F - 75.0 °F 94% 29.91 in 3.0 mi NE 10.4 mph - 2.15 in Rain , Thunderstorm Thunderstorms and Rain
7:18 PM 79.0 °F - 73.9 °F 84% 29.91 in 7.0 mi SE 6.9 mph - 0.04 in Thunderstorm Thunderstorm
7:56 PM 79.0 °F - 75.9 °F 90% 29.92 in 7.0 mi Calm Calm - 0.04 in Thunderstorm Mostly Cloudy
8:03 PM 78.1 °F - 75.9 °F 93% 29.92 in 10.0 mi South 3.5 mph - N/A Thunderstorm Thunderstorm
8:56 PM 78.1 °F - 75.9 °F 93% 29.93 in 10.0 mi Calm Calm - N/A Thunderstorm Mostly Cloudy
9:56 PM 79.0 °F - 75.9 °F 90% 29.92 in 8.0 mi Calm Calm - N/A   Mostly Cloudy
10:56 PM 80.1 °F 85.8 °F 77.0 °F 90% 29.93 in 9.0 mi Calm Calm - N/A   Scattered Clouds
11:56 PM 78.1 °F - 75.9 °F 93% 29.94 in 8.0 mi West 4.6 mph - N/A   Scattered Clouds